Location: Normandy Village
(37.8755°N, 122.2655°W)
Time: 14:56:02
(UTC+00:00)

SL-4 R/B - Pass Details

Date: 22 September 2019
Orbit: 428 x 667 km, 51.6° (Epoch: 20 October)

Event Time Altitude Azimuth Distance (km) Brightness Sun altitude
Exits shadow 12:05:39 36° 145° (SE) 733 2.7 -22.3°
Drops below altitude 10° 12:07:58 10° 137° (SE) 1,620 4.7 -21.9°
Sets 12:10:11 0° 135° (SE) 2,531 5.8 -21.5°
